PEGASUS DEB, 24091

Orbit data source: Space-Track

PEGASUS DEB, 24091 is space debris in LEO originally from a launch on Thu, 19 May 1994 UTC launched from the Air Force Western Test Range (AFWTR). Debris objects in space refer to the collection of defunct objects orbiting the Earth. Examples of debris include non-operational satellites, rocket bodies, and fragments generated from explosions, collisions, or faulty payload assembly.

Loading next visibility...
Identifier
24091, 1994-029EN
Orbit
LEO
Country
Flag of USUS
Related business
Manufacturer
Unknown
Mission
Spacecraft
Bus & Motor
Unknown
Mass
Unknown
Launch date (UTC)
1994-05-19 (32 years ago)
Launch vehicle
Unknown
Launch site
Air Force Western Test Range (AFWTR)
Object type
Payload
Rocket body
Debris
Shape & HBR
Unknown shape, 0.2 m
Radar Cross Section
Medium (>0.1 m² and <1 m²)

Expand to show TLE details & history
Last TLE update: 15 hours ago

TLE from 15 hours ago
0 PEGASUS DEB
1 24091U 94029EN  26263.46880045  .00002533  00000-0  15861-3 0  9991
2 24091  81.9885 276.9179 0059019 225.7329 255.8598 15.07507281644644
Epoch: 2026-09-20T11:15Z
TLE epoch observation values (Epoch: 2026-09-20T11:15:04.358Z)
Latitude
58.24322°
Longitude
-84.28268°
Altitude
563.872 km
Speed
7.579 km/s
True Right ascension
05h 35m 23s
True Declination
58° 05' 05"
Sunlit
Object was in daylight at epoch
Visualization orbit readout
Latitude
Unknown
Longitude
Unknown
Altitude
Unknown
Speed
Unknown
Apparent Right ascension
Unknown
Apparent Declination
Unknown
Sunlit
N/A
Visualization observer readout
Local Sidereal Time
18:56:48
Azimuth
Unknown
Elevation
Unknown
Doppler factor
Unknown
Orbital elements
Apogee altitude
581.664 km
Perigee altitude
499.994 km
Semi-major axis
6,918.966 km
Eccentricity
0.0059
Inclination
81.9885°
RAAN
276.9179°
Arg. of periapsis
225.7329°
True anomaly
255.20518°
Mean anomaly
255.8598°
Eccentric anomaly
255.53237°
Mean motion
3.77122 °/min
Orbital period
95.46 mins
BSTAR
0.00015861
Loading maneuver chart data...
Computing Atmospheric mass density...

Documentation

Showing up to 5 results
|